Location: Gebenbach
(49.5378°N, 11.8735°E)
Time: 03:16:07
(UTC+00:00)

Cosmos 2266 Rocket - Pass Details

Date: 29 October 2020
Orbit: 935 x 1007 km, 82.9° (Epoch: 27 November)

Event Time Altitude Azimuth Distance (km) Brightness Sun altitude
Rises 16:22:39 0° 348° (NNW) 3,665 7.0 -5.1°
Reaches altitude 10° 16:25:09 10° 347° (NNW) 2,725 6.3 -5.5°
Maximum altitude 16:31:22 71° 265° (W) 1,042 4.5 -6.5°
Drops below altitude 10° 16:37:38 10° 183° (S) 2,753 6.6 -7.5°
Sets 16:40:11 0° 181° (S) 3,706 7.2 -7.9°
